User: anonymous   Login
Location: Strawberry
(45.6646°N, 111.9596°W)
Time: 10:45:18
(UTC+00:00)
Language:

EO-79 - Orbit

View from above orbital plane
View from above orbital plane
View from above satellite
View from above satellite

Ground track
Ground track

The orbit data is extracted from the following two-line orbital elements,

1 40025U 14033R   22333.76597713  .00002367  00000-0  24278-3 0  9994
2 40025  97.9759 272.6427 0010456 228.7435 131.2882 14.91393502458397
Epoch (UTC): 29 November 2022 18:23:00
Eccentricity: 0.0010456
inclination: 97.9759°
perigee height: 586 km
apogee height: 601 km
right ascension of ascending node: 272.6427°
argument of perigee: 228.7435°
revolutions per day: 14.91393502
mean anomaly at epoch: 131.2882°
orbit number at epoch: 45839

The dashed part of the orbit path shows where the satellite is in the earth's shadow,  

DLR